Temp
-0 -0 -1 -1 -1 -1 -1 -2 -2 -2 -2 -2 -1 -2 -2 -2 -2 -2 -3 -3 -2 -2 -1 -1 -0 0 1 1 2 2 2 2 2 2 3 4 4 5 5 7 8 6 5 5 6 5 6 12 12 10 12 13 12 12
-0 -0 -0 -1 -1 -1 -1 -1 -1 -2 -1 -2 -2 -2 -2 -2 -2 -2 -3 -3 -3 -2 -1 -1 -2 -1 -0 1 1 1 1 1 1 1 1 1 1 3 4 5 9 7 8 8 8 9 11 9 10 10 9 10 11 11
1 0 0 -1 -1 -1 -1 -1 -1 -1 -1 -1 -2 -1 -2 -2 -2 -2 -3 -3 -3 -3 -3 -3 -2 -2 -2 -1 -1 -0 1 1 1 1 0 1 1 2 2 3 7 7 8 7 8 10 10 11 10 10 10 9 9 10
0 0 0 -1 -1 -1 -2 -1 -2 -1 -1 -1 -1 -2 -2 -2 -2 -2 -3 -3 -3 -2 -2 0 -1 -2 -1 -2 -1 -1 -1 0 -0 -0 -0 0 1 2 2 3 3 5 8 7 7 8 9 8 8 8 8 8 8 8
-0 -1 -1 -0 -1 -1 -1 -1 -1 -1 -2 -2 -1 -2 -1 -2 -2 -2 -3 -2 -2 -2 -0 0 -1 -1 -1 -1 -2 -2 -1 -1 -1 -0 -1 0 2 1 3 2 3 7 8 7 8 10 9 9 7 6 7 8 8 8
-1 -1 -1 -1 -1 -1 -1 -1 -1 -1 -2 -2 -1 -2 -1 -2 -2 -1 -3 -3 -2 -3 -2 -1 -1 -1 -1 -1 -1 -1 -1 -1 -1 -1 0 1 1 0 1 4 8 8 7 8 9 8 7 7 7 6 6 6 7 7
-1 -1 -1 -1 -1 -1 -1 -1 -1 -1 -1 -1 -2 -1 -1 -2 -1 -2 -2 -2 -3 -3 -3 -2 -0 -0 -0 -1 -1 -1 -1 -2 -2 -1 -0 1 1 -1 1 4 7 7 6 6 6 6 7 7 7 6 6 5 6 7
-2 -2 -1 -2 -1 -1 -1 -1 -1 -1 -1 -1 -1 -1 -2 -2 -2 -3 -3 -2 -3 -3 -3 -2 1 -0 -1 -1 -1 -1 -1 -2 -2 -1 -0 2 2 0 2 5 6 7 5 5 5 5 5 5 5 5 5 6 6 7
-2 -2 -2 -2 -2 -2 -1 -2 -2 -1 -2 -2 -2 -3 -3 -3 -3 -3 -3 -3 -3 -2 -1 -0 0 0 -2 -2 -2 -1 -1 -1 -1 -0 1 1 2 2 4 6 6 6 6 5 5 4 4 5 5 5 5 6 6 7
-2 -3 -2 -2 -2 -2 -2 -2 -2 -2 -2 -3 -3 -3 -3 -3 -3 -4 -3 -3 -3 -3 -3 -0 1 1 -1 -1 -0 -0 -1 1 1 2 -0 1 3 4 2 2 4 3 3 3 3 6 5 5 5 5 6 6 6 7
-3 -3 -2 -2 -2 -2 -2 -2 -3 -3 -2 -2 -3 -4 -4 -3 -3 -3 -3 -2 -3 -2 -1 -1 -0 1 -2 0 -1 -1 1 1 2 2 2 3 3 2 0 1 1 1 0 1 1 2 2 2 4 4 4 5 5 5
-2 -2 -2 -2 -3 -3 -2 -2 -2 -2 -1 -2 -3 -4 -3 -3 -3 -2 -1 -1 -1 1 1 1 1 -0 0 -1 -0 -1 1 1 1 1 2 4 3 1 -0 -1 -1 -1 -1 0 1 1 1 1 2 2 3 4 4 5
-2 -2 -2 -2 -2 -2 -2 -3 -2 -2 -1 -1 -2 -3 -3 -3 -2 -1 -1 0 1 1 0 -1 -0 -0 -1 -1 1 1 1 2 2 2 3 4 4 1 -1 -1 -1 -0 1 1 1 1 1 2 2 4 4 4 4 4
-2 -1 -1 -1 -2 -1 -1 -2 -2 -2 -2 -2 -2 -2 -1 -1 -0 1 1 2 0 -0 -0 0 0 1 1 1 1 1 1 2 2 2 4 4 1 -1 -1 -1 -0 -0 -0 0 1 1 1 2 2 1 2 2 1 2
-1 -1 -1 -1 -1 -1 -0 -1 -2 -2 -2 -1 -1 -0 -1 -0 -1 -2 -2 -1 -2 -2 -1 -0 1 2 2 -1 1 1 1 2 3 4 4 3 -1 -2 -2 -2 -2 -1 -1 1 0 -0 -2 -1 -0 -0 -0 -0 -0 -0
-1 -1 -1 -1 -1 -1 -1 -1 -2 -2 -2 -2 -2 -2 -3 -2 -1 -2 -3 -2 -3 -2 -1 0 3 2 2 1 1 2 3 3 4 3 1 -1 -2 -2 -2 -2 -0 0 -0 -1 -2 -1 -1 -1 -1 -1 -1 -1 -1 -1
-1 -1 -1 -0 -0 -0 -1 -2 -2 -2 -1 -2 -2 -3 -2 -2 -2 -3 -3 -3 -3 -1 1 3 2 3 2 2 2 3 3 4 1 0 -0 -2 -2 -2 -3 -3 -2 -2 -2 -3 -3 -3 -2 -3 -3 -3 -3 -3 -3 -3
-1 -1 -0 0 0 0 -1 -1 -1 -2 -1 -3 -2 -2 -3 -3 -3 -3 -3 -3 -2 -0 1 3 2 2 2 2 3 4 2 -0 0 -0 -2 -2 -2 -1 -2 -3 -3 -3 -3 -3 -3 -4 -4 -4 -5 -5 -5 -5 -5 -5
-1 -1 -1 -0 -0 0 -0 -1 -1 0 -1 -2 -3 -3 -3 -3 -2 -3 -3 -2 -2 -1 -0 0 0 2 3 3 2 0 -0 -0 -1 -2 -1 -1 -2 -2 -2 -3 -3 -3 -3 -3 -5 -6 -6 -6 -6 -7 -7 -7 -7 -7
-2 -2 -1 -1 -1 -1 -1 -1 -1 -1 0 -2 -3 -3 -3 -2 -3 -3 -3 -3 -1 -1 -0 0 1 2 2 1 0 1 0 1 -1 -3 -3 -3 -2 -2 -3 -3 -3 -4 -4 -5 -5 -6 -6 -6 -7 -7 -7 -7 -8 -8
-3 -4 -3 -2 -2 -2 -2 -2 -2 -2 -2 -2 -2 -2 -2 -3 -3 -3 -3 -3 -2 -0 1 1 -0 -0 -1 -0 0 -0 -0 -0 -1 -1 -0 -3 -3 -4 -4 -4 -4 -4 -5 -5 -6 -6 -6 -6 -6 -7 -7 -8 -8 -7
-4 -4 -3 -3 -3 -3 -3 -4 -3 -3 -2 -2 -2 -2 -1 -1 -1 -2 -2 -2 -1 -1 -1 -2 -2 -2 -1 -1 -1 -1 -1 -1 -1 -1 -1 -1 -4 -4 -4 -5 -5 -5 -5 -5 -5 -5 -5 -6 -6 -7 -7 -7 -7 -7
-4 -4 -4 -3 -3 -3 -4 -4 -2 -2 -1 -1 -1 -1 -1 -1 -2 -3 -1 -2 -3 -4 -4 -4 -3 -3 -3 -2 -2 -2 -1 -1 -2 -2 -2 -2 -3 -3 -4 -4 -5 -5 -5 -5 -5 -5 -6 -6 -6 -6 -7 -7 -7 -7
-4 -4 -4 -4 -4 -3 -4 -3 -2 -2 -2 -1 -0 -1 -1 -2 -3 -1 -1 -3 -5 -4 -4 -4 -4 -3 -3 -3 -3 -3 -3 -2 -2 -3 -2 -3 -3 -3 -3 -4 -4 -4 -4 -5 -5 -5 -6 -6 -6 -6 -6 -7 -7 -7
-4 -5 -5 -4 -5 -3 -4 -4 -4 -2 -3 -3 -2 -2 -2 -4 -2 -2 -2 -3 -4 -4 -5 -5 -5 -4 -4 -4 -4 -3 -3 -3 -3 -3 -3 -3 -3 -3 -3 -4 -4 -4 -4 -4 -5 -5 -5 -6 -6 -6 -6 -7 -7 -7
-5 -6 -5 -4 -4 -4 -3 -3 -4 -4 -4 -3 -3 -4 -4 -2 -2 -2 -2 -4 -4 -4 -5 -5 -5 -5 -5 -5 -5 -4 -4 -3 -4 -4 -4 -4 -3 -3 -3 -4 -4 -4 -4 -4 -4 -5 -5 -6 -6 -6 -6 -7 -7 -7
-6 -6 -6 -6 -6 -5 -5 -5 -5 -4 -4 -4 -4 -4 -3 -3 -3 -3 -4 -5 -5 -6 -5 -6 -6 -6 -6 -6 -5 -4 -4 -4 -4 -4 -4 -4 -4 -4 -4 -4 -4 -4 -4 -4 -5 -5 -5 -5 -6 -6 -6 -7 -7 -7
-7 -8 -8 -7 -6 -6 -5 -5 -5 -5 -4 -5 -3 -4 -4 -4 -3 -5 -7 -7 -6 -6 -6 -6 -6 -6 -6 -5 -5 -5 -4 -4 -4 -4 -5 -4 -4 -4 -4 -4 -4 -4 -5 -5 -5 -5 -5 -6 -6 -6 -7 -7 -7 -8
-8 -9 -9 -7 -6 -5 -5 -5 -5 -6 -6 -6 -4 -4 -4 -7 -8 -8 -8 -8 -8 -8 -8 -7 -7 -7 -7 -6 -5 -5 -5 -5 -5 -5 -5 -5 -5 -5 -5 -5 -5 -5 -5 -6 -6 -6 -6 -6 -7 -7 -7 -8 -8 -8
-10 -10 -9 -7 -7 -6 -7 -9 -8 -8 -8 -7 -7 -6 -6 -8 -10 -9 -9 -9 -9 -9 -8 -8 -8 -8 -7 -7 -6 -5 -5 -5 -5 -5 -5 -5 -5 -5 -5 -5 -6 -6 -6 -6 -6 -6 -7 -7 -7 -8 -8 -8 -9 -9
-11 -10 -9 -9 -8 -8 -9 -9 -7 -7 -8 -8 -8 -7 -7 -9 -9 -10 -10 -10 -10 -9 -9 -8 -8 -8 -7 -7 -7 -7 -6 -6 -6 -5 -5 -5 -5 -5 -6 -6 -6 -6 -6 -6 -6 -7 -7 -8 -8 -8 -9 -9 -9 -9
-11 -10 -11 -11 -9 -9 -10 -9 -9 -8 -8 -8 -8 -8 -8 -7 -9 -11 -13 -12 -11 -10 -10 -9 -8 -8 -7 -7 -7 -6 -6 -6 -6 -6 -6 -6 -6 -6 -7 -7 -7 -7 -7 -7 -7 -7 -8 -8 -8 -8 -9 -9 -9 -9
-13 -12 -12 -11 -10 -10 -10 -10 -8 -7 -7 -7 -7 -9 -9 -9 -10 -12 -13 -13 -13 -13 -12 -10 -9 -8 -7 -7 -7 -7 -7 -7 -7 -7 -7 -7 -7 -8 -8 -8 -8 -8 -7 -7 -7 -8 -8 -8 -8 -9 -9 -9 -9 -10
Height
1260 1261 1267 1275 1285 1294 1304 1315 1324 1334 1343 1351 1361 1369 1378 1386 1394 1400 1407 1412 1419 1422 1422 1424 1426 1427 1428 1429 1428 1427 1430 1427 1428 1425 1417 1414 1412 1404 1399 1387 1383 1390 1399 1398 1399 1398 1390 1366 1369 1377 1368 1369 1371 1370
1244 1245 1252 1263 1274 1285 1296 1306 1316 1326 1335 1344 1353 1362 1370 1379 1388 1396 1403 1407 1415 1419 1417 1417 1420 1421 1424 1426 1428 1427 1428 1428 1427 1425 1423 1422 1419 1410 1401 1387 1378 1381 1378 1376 1377 1369 1368 1369 1368 1370 1371 1370 1369 1369
1222 1226 1240 1254 1268 1279 1289 1300 1310 1320 1329 1338 1346 1355 1364 1373 1382 1389 1397 1403 1411 1414 1415 1414 1409 1413 1416 1417 1423 1426 1424 1426 1427 1427 1427 1425 1420 1413 1407 1394 1375 1375 1375 1376 1373 1365 1364 1363 1365 1367 1367 1366 1366 1366
1223 1226 1239 1253 1266 1277 1286 1296 1306 1315 1324 1333 1341 1350 1358 1368 1377 1384 1389 1394 1403 1410 1410 1400 1402 1405 1408 1410 1413 1416 1419 1423 1424 1424 1424 1420 1415 1410 1403 1397 1393 1381 1372 1370 1365 1364 1365 1364 1363 1362 1361 1362 1362 1362
1243 1243 1249 1260 1269 1278 1286 1295 1304 1313 1322 1330 1338 1346 1354 1363 1372 1381 1386 1386 1393 1401 1398 1397 1398 1398 1399 1403 1405 1409 1412 1415 1418 1420 1419 1412 1409 1409 1400 1396 1380 1372 1365 1365 1359 1359 1360 1360 1361 1361 1359 1358 1358 1359
1262 1261 1264 1269 1275 1281 1288 1296 1304 1312 1320 1328 1336 1343 1350 1359 1369 1372 1377 1381 1385 1393 1398 1396 1394 1392 1393 1397 1400 1401 1403 1408 1411 1411 1409 1406 1407 1408 1399 1379 1361 1360 1362 1361 1359 1360 1361 1361 1360 1358 1357 1357 1359 1359
1277 1275 1276 1278 1281 1286 1292 1298 1305 1312 1320 1329 1336 1343 1349 1356 1362 1367 1369 1370 1378 1387 1393 1394 1390 1388 1388 1391 1393 1394 1397 1399 1404 1403 1400 1400 1398 1400 1389 1372 1361 1360 1359 1360 1360 1360 1359 1358 1358 1358 1357 1357 1357 1356
1292 1290 1289 1289 1290 1292 1295 1300 1306 1313 1323 1330 1336 1341 1348 1350 1358 1366 1366 1370 1376 1384 1388 1391 1385 1387 1386 1385 1383 1381 1387 1392 1393 1394 1391 1388 1390 1389 1376 1360 1360 1359 1359 1359 1359 1357 1358 1357 1355 1356 1355 1355 1356 1356
1307 1304 1301 1299 1300 1302 1305 1308 1312 1319 1325 1331 1334 1341 1347 1355 1360 1364 1369 1374 1379 1386 1385 1385 1380 1378 1381 1379 1378 1376 1380 1382 1384 1382 1380 1381 1371 1366 1357 1354 1353 1354 1355 1357 1356 1355 1356 1355 1355 1356 1356 1356 1356 1356
1320 1318 1316 1314 1313 1312 1313 1315 1317 1323 1328 1334 1339 1346 1357 1360 1362 1369 1378 1380 1383 1382 1382 1378 1375 1372 1375 1374 1368 1369 1373 1368 1366 1368 1371 1367 1359 1355 1355 1356 1353 1353 1354 1353 1353 1352 1352 1352 1352 1352 1353 1354 1354 1354
1330 1329 1328 1327 1327 1327 1327 1329 1332 1335 1338 1341 1346 1354 1361 1364 1367 1371 1375 1376 1378 1377 1372 1368 1367 1367 1369 1369 1369 1365 1362 1363 1357 1360 1362 1353 1351 1353 1356 1355 1352 1353 1352 1351 1350 1349 1348 1348 1349 1348 1349 1349 1350 1350
1339 1337 1337 1336 1336 1337 1338 1339 1340 1342 1342 1343 1348 1358 1364 1367 1369 1369 1367 1370 1369 1361 1361 1360 1360 1362 1363 1364 1363 1362 1358 1360 1356 1362 1359 1345 1350 1354 1353 1352 1353 1352 1350 1349 1346 1345 1345 1345 1346 1346 1347 1346 1347 1346
1346 1345 1343 1342 1341 1342 1342 1344 1345 1346 1347 1349 1352 1357 1360 1364 1363 1360 1357 1354 1354 1354 1354 1355 1356 1359 1361 1361 1359 1357 1358 1354 1358 1353 1346 1344 1348 1351 1351 1350 1348 1346 1344 1345 1345 1345 1344 1343 1343 1342 1344 1345 1344 1344
1351 1349 1348 1346 1345 1344 1344 1345 1345 1348 1350 1351 1352 1354 1355 1352 1350 1347 1345 1345 1349 1350 1350 1351 1352 1353 1355 1355 1357 1357 1358 1355 1349 1347 1342 1343 1347 1348 1347 1346 1346 1347 1348 1346 1344 1344 1345 1344 1343 1344 1345 1344 1344 1345
1352 1351 1350 1348 1346 1344 1344 1345 1347 1348 1349 1349 1350 1344 1346 1345 1347 1347 1348 1349 1349 1349 1350 1350 1352 1351 1352 1358 1356 1357 1355 1349 1344 1340 1342 1346 1348 1349 1349 1349 1349 1348 1347 1346 1346 1347 1350 1347 1345 1347 1347 1346 1346 1345
1351 1350 1350 1349 1347 1345 1344 1345 1348 1349 1348 1347 1346 1345 1345 1344 1344 1346 1346 1347 1347 1348 1349 1350 1347 1348 1348 1350 1349 1348 1342 1340 1340 1344 1346 1347 1348 1349 1349 1348 1347 1348 1349 1351 1352 1347 1351 1351 1348 1348 1348 1349 1349 1349
1348 1348 1347 1347 1346 1345 1344 1346 1348 1347 1346 1345 1344 1343 1342 1342 1341 1342 1344 1345 1345 1348 1346 1345 1345 1343 1347 1345 1345 1343 1341 1342 1345 1346 1347 1347 1349 1350 1350 1350 1351 1352 1351 1351 1353 1351 1352 1352 1351 1351 1351 1351 1352 1352
1344 1344 1343 1344 1344 1343 1343 1344 1344 1344 1343 1343 1342 1343 1344 1344 1344 1344 1345 1345 1347 1347 1346 1344 1346 1345 1345 1344 1342 1342 1344 1344 1344 1346 1347 1348 1348 1349 1349 1349 1350 1351 1350 1352 1355 1354 1353 1353 1353 1353 1353 1353 1353 1354
1339 1340 1340 1340 1341 1341 1341 1342 1341 1340 1341 1343 1343 1343 1344 1345 1345 1346 1346 1346 1346 1347 1348 1347 1347 1341 1340 1342 1342 1344 1344 1345 1346 1345 1345 1346 1348 1348 1348 1350 1351 1352 1352 1353 1355 1355 1355 1354 1354 1354 1355 1355 1355 1356
1334 1335 1336 1337 1338 1339 1339 1339 1338 1339 1339 1341 1342 1343 1343 1343 1344 1344 1346 1347 1348 1348 1348 1346 1344 1343 1343 1344 1343 1344 1344 1344 1344 1345 1345 1344 1345 1347 1347 1349 1349 1351 1352 1353 1355 1355 1355 1355 1355 1355 1355 1356 1356 1357
1332 1332 1333 1334 1336 1337 1337 1337 1336 1337 1337 1338 1339 1340 1341 1342 1344 1345 1345 1346 1347 1344 1342 1342 1343 1343 1343 1343 1342 1343 1342 1343 1343 1343 1342 1342 1343 1345 1347 1348 1348 1350 1351 1353 1354 1354 1355 1356 1356 1356 1356 1356 1357 1358
1331 1332 1333 1334 1335 1336 1337 1337 1337 1337 1337 1337 1338 1338 1337 1338 1339 1341 1342 1344 1343 1342 1343 1342 1342 1341 1341 1340 1340 1340 1340 1340 1340 1339 1340 1340 1341 1343 1345 1346 1347 1349 1350 1351 1352 1353 1354 1354 1355 1356 1356 1357 1358 1359
1332 1333 1334 1335 1336 1337 1339 1337 1336 1336 1335 1335 1336 1335 1337 1339 1339 1340 1339 1340 1343 1345 1344 1342 1340 1338 1337 1336 1336 1336 1336 1337 1336 1338 1338 1340 1341 1342 1343 1344 1345 1347 1348 1349 1351 1351 1352 1353 1354 1356 1356 1358 1359 1360
1333 1334 1335 1336 1337 1338 1338 1337 1337 1336 1336 1335 1334 1335 1338 1339 1340 1337 1336 1346 1349 1348 1345 1342 1340 1338 1336 1334 1334 1333 1333 1334 1334 1335 1337 1339 1339 1340 1340 1341 1342 1344 1346 1347 1348 1349 1350 1352 1354 1355 1357 1358 1360 1361
1336 1340 1340 1339 1339 1339 1339 1339 1339 1338 1338 1339 1338 1339 1341 1342 1339 1340 1341 1348 1348 1347 1345 1343 1341 1339 1338 1336 1334 1333 1333 1333 1333 1334 1335 1336 1337 1337 1338 1339 1340 1341 1343 1344 1346 1347 1349 1351 1353 1355 1357 1358 1360 1362
1339 1344 1344 1343 1342 1340 1340 1339 1341 1342 1341 1341 1342 1344 1344 1342 1342 1342 1345 1349 1348 1347 1346 1344 1342 1340 1339 1337 1335 1334 1333 1333 1333 1333 1333 1334 1334 1335 1335 1336 1337 1339 1340 1342 1344 1346 1348 1350 1352 1354 1356 1358 1360 1362
1351 1354 1351 1349 1347 1346 1345 1346 1345 1344 1343 1344 1345 1345 1343 1343 1343 1347 1348 1350 1349 1347 1344 1342 1341 1340 1338 1336 1334 1333 1332 1332 1332 1333 1332 1332 1332 1333 1334 1335 1336 1337 1338 1340 1342 1344 1346 1348 1350 1353 1355 1357 1359 1360
1363 1363 1360 1354 1350 1349 1348 1348 1348 1348 1347 1350 1347 1345 1345 1345 1346 1351 1351 1349 1346 1344 1341 1339 1338 1337 1335 1333 1333 1332 1332 1332 1332 1331 1331 1331 1332 1333 1333 1334 1335 1337 1338 1340 1342 1343 1345 1348 1349 1351 1353 1355 1357 1358
1370 1368 1361 1357 1353 1352 1352 1352 1353 1354 1354 1353 1349 1347 1348 1352 1354 1353 1351 1348 1346 1344 1341 1339 1337 1335 1334 1333 1331 1331 1331 1332 1333 1332 1332 1333 1333 1334 1334 1334 1335 1337 1338 1339 1341 1342 1344 1347 1349 1351 1353 1354 1356 1358
1378 1375 1370 1365 1362 1357 1359 1360 1358 1354 1352 1352 1351 1350 1351 1354 1356 1355 1352 1350 1347 1346 1343 1340 1338 1335 1333 1332 1331 1330 1330 1331 1332 1333 1333 1333 1334 1334 1335 1336 1336 1337 1338 1339 1341 1342 1344 1346 1348 1350 1352 1354 1356 1357
1385 1380 1375 1372 1367 1364 1361 1357 1354 1351 1349 1349 1348 1349 1350 1353 1354 1355 1353 1352 1350 1347 1344 1341 1338 1336 1334 1333 1331 1330 1330 1331 1332 1332 1333 1333 1333 1334 1334 1335 1336 1337 1338 1340 1341 1343 1345 1347 1348 1350 1352 1354 1355 1358
1387 1382 1382 1377 1370 1365 1361 1358 1353 1351 1349 1348 1348 1347 1349 1350 1356 1360 1359 1355 1351 1348 1346 1343 1340 1337 1335 1334 1333 1332 1332 1332 1332 1333 1333 1333 1334 1334 1334 1334 1334 1335 1337 1339 1341 1343 1346 1347 1349 1351 1353 1354 1356 1358
1387 1382 1379 1377 1372 1367 1364 1362 1354 1351 1349 1348 1348 1350 1352 1355 1363 1368 1364 1361 1357 1353 1348 1345 1342 1339 1338 1337 1337 1336 1335 1335 1334 1334 1333 1333 1333 1334 1334 1334 1335 1336 1337 1339 1342 1344 1346 1348 1349 1351 1353 1355 1357 1359
Wind_Speed
25 30 33 37 39 39 38 40 39 40 39 43 42 38 39 38 36 36 31 28 28 17 18 15 22 16 11 11 7 1 5 6 6 5 8 9 9 10 9 15 11 11 7 8 12 12 19 10 14 18 12 15 11 10
27 29 33 35 35 37 37 38 39 38 39 39 41 45 39 39 39 36 29 28 26 23 8 18 26 24 23 17 11 9 7 3 1 3 2 3 3 4 11 15 16 13 14 8 9 10 4 2 5 10 13 16 18 16
19 25 29 36 34 32 34 36 38 36 37 37 37 38 42 38 38 41 37 25 25 25 19 25 30 24 25 28 24 20 17 14 13 8 2 2 7 3 6 10 16 10 6 7 8 13 18 22 21 20 21 21 18 14
17 16 25 31 30 30 31 32 34 35 34 36 34 35 40 39 37 39 40 36 33 11 7 16 15 26 27 24 27 27 25 19 14 9 10 5 6 5 6 11 13 14 8 10 13 12 13 20 19 22 23 17 17 15
28 20 22 24 24 25 28 30 31 32 32 33 33 33 35 40 37 37 42 39 41 28 4 11 12 17 17 22 25 26 27 27 24 15 7 7 5 5 7 10 12 16 11 7 7 7 9 6 1 6 7 8 8 11
26 23 19 19 20 20 25 27 29 29 31 30 30 28 34 39 34 38 10 38 42 37 8 4 6 6 14 19 22 25 28 25 26 13 10 18 20 3 4 8 15 20 22 20 12 9 9 10 12 11 3 5 15 12
34 27 19 17 17 19 21 22 26 27 30 29 25 25 29 34 38 27 7 9 40 40 8 2 3 5 12 16 16 20 22 21 20 18 10 17 9 14 5 15 15 8 9 13 12 10 12 9 5 5 5 10 6 5
28 24 25 25 23 20 19 22 26 28 26 23 21 22 28 35 34 16 9 14 37 19 6 2 2 3 11 8 8 22 15 19 14 11 8 10 12 9 8 16 22 21 6 4 5 4 9 5 2 3 3 2 2 3
35 36 34 27 20 20 23 22 23 24 22 19 30 37 38 25 9 13 19 26 20 4 5 5 3 3 7 6 8 10 12 5 9 8 7 7 7 7 12 15 12 8 4 3 8 8 8 6 6 7 5 3 1 1
31 31 31 32 34 34 31 24 23 27 35 50 30 12 6 12 34 33 15 8 5 4 4 4 10 4 7 3 3 5 7 4 5 6 7 5 4 13 6 8 1 4 7 4 6 8 5 6 8 9 10 11 11 10
31 29 27 25 25 27 31 35 37 37 21 8 6 5 26 20 5 3 5 5 5 4 7 7 11 7 7 4 4 4 2 4 3 4 3 3 3 2 2 1 3 2 4 4 8 10 11 13 11 8 8 10 14 16
25 23 22 22 19 18 20 28 29 10 6 7 17 19 15 4 2 3 4 4 5 4 7 4 6 10 5 7 5 3 1 2 2 3 3 2 4 4 1 3 4 3 4 2 4 4 2 4 7 7 8 9 10 9
18 20 19 14 11 11 8 16 14 11 21 14 6 5 5 5 4 5 7 4 4 4 7 8 4 7 5 6 1 2 3 2 3 3 1 1 1 3 1 4 6 7 7 6 4 3 2 1 2 4 7 7 5 6
10 12 16 19 12 4 4 8 14 17 7 2 4 5 4 4 5 4 5 3 2 4 7 7 3 2 2 3 1 3 2 3 2 1 1 2 4 3 5 7 6 5 4 6 7 4 2 4 5 6 5 4 4 7
5 4 8 14 19 7 5 7 13 11 2 2 3 3 6 2 2 2 2 2 3 3 6 4 3 4 2 2 2 3 4 3 2 1 1 2 2 2 1 3 4 7 8 8 8 8 7 9 10 9 8 7 5 5
7 6 5 10 14 13 3 8 16 14 3 3 3 2 2 2 4 4 4 4 4 5 5 3 2 2 2 3 3 2 3 2 2 1 0 1 2 1 0 2 7 8 9 9 8 10 7 6 8 8 8 8 9 11
8 5 8 9 10 12 4 9 8 5 4 3 2 2 1 1 2 1 2 1 3 6 3 2 2 1 2 0 1 2 2 1 1 2 2 5 7 6 4 5 8 6 5 4 2 3 3 4 5 5 7 9 9 9
10 10 10 9 9 9 2 6 4 4 4 2 2 4 4 2 2 1 2 3 4 2 2 0 1 3 2 4 3 2 4 2 3 4 5 7 8 5 1 5 8 6 5 3 2 3 4 4 4 5 6 7 8 8
11 10 9 8 6 3 2 3 3 2 1 4 3 5 2 1 6 3 4 4 2 2 2 0 2 2 3 2 2 1 2 3 3 3 4 8 9 7 4 6 7 7 5 4 5 4 4 4 5 5 6 6 6 7
6 6 6 6 7 4 3 2 2 2 2 3 4 6 3 2 4 6 6 6 6 3 3 3 3 1 2 2 3 3 1 4 6 4 5 9 11 10 7 7 9 10 9 8 7 6 5 4 4 5 5 6 7 7
3 2 3 7 5 5 1 1 2 2 2 2 3 5 3 5 4 6 6 9 6 3 2 5 5 7 7 9 8 6 7 9 9 7 5 9 14 11 8 8 11 12 11 10 8 7 6 5 5 5 6 6 7 9
3 3 4 3 2 1 1 0 0 1 1 2 2 2 2 2 3 4 6 4 3 1 3 4 8 11 12 10 7 7 7 8 11 8 7 5 11 13 12 11 13 14 11 9 8 8 8 8 7 7 6 8 9 9
5 4 3 3 1 1 1 1 1 1 2 1 2 2 2 1 1 5 3 2 5 12 10 9 8 7 8 9 10 11 10 9 9 8 10 8 7 8 11 12 12 15 12 10 8 8 9 10 10 9 8 9 10 10
4 3 3 2 3 1 2 2 1 1 1 0 1 2 2 2 3 3 1 4 3 7 11 13 12 10 7 7 4 5 7 8 9 11 13 9 9 9 9 9 13 14 12 11 10 10 10 12 12 11 10 11 10 10
2 5 4 4 4 2 2 2 2 2 2 3 2 2 2 3 1 3 2 2 5 10 14 16 12 10 9 9 7 3 1 1 4 8 11 12 9 10 11 10 11 13 14 13 14 12 13 14 13 13 12 11 11 11
5 8 6 7 5 3 4 2 2 3 2 2 3 3 3 1 1 2 2 4 6 10 14 16 14 12 8 8 8 7 5 4 4 5 7 9 10 10 11 12 12 12 13 14 14 15 14 15 15 14 14 13 11 10
6 8 7 6 5 4 2 2 2 2 2 3 2 4 2 1 1 2 4 10 11 14 15 12 13 11 11 10 6 6 4 4 5 5 5 6 8 7 6 10 9 8 12 13 13 14 14 14 14 14 15 16 13 10
7 15 9 17 5 5 2 2 4 6 4 6 6 3 3 3 4 5 7 14 14 13 12 10 10 9 9 8 6 6 6 5 3 2 2 3 6 6 6 7 9 8 9 12 11 12 13 13 11 12 14 14 11 10
9 23 17 8 6 4 6 4 5 4 6 7 3 0 2 4 10 13 15 17 16 14 13 12 10 10 7 6 7 6 7 7 4 4 3 4 4 3 4 5 10 10 10 10 9 10 12 14 11 12 12 11 10 11
9 20 9 8 6 3 4 12 16 21 14 7 5 2 3 9 20 21 18 18 17 16 15 14 12 10 7 6 7 5 5 10 7 4 3 3 4 5 5 5 6 8 10 11 10 13 13 13 13 12 11 12 13 12
12 12 6 8 4 12 20 21 17 15 5 2 3 2 3 8 9 25 29 23 21 19 20 18 16 13 10 10 6 3 0 5 6 5 3 3 4 5 6 7 8 10 13 12 11 12 13 14 13 12 12 12 12 12
10 5 10 4 7 14 14 11 7 4 3 1 2 2 3 4 6 14 31 29 26 26 24 21 19 18 8 8 7 4 3 6 5 4 2 1 3 5 5 5 5 8 12 14 14 14 13 12 13 12 13 13 12 12
9 8 5 6 6 7 8 12 5 4 3 2 3 5 8 7 6 13 21 31 26 27 26 22 16 14 5 6 6 5 4 3 3 2 2 2 3 5 5 4 5 7 10 14 15 15 14 13 13 14 13 13 13 14
Wind_Direction
277 247 236 226 223 221 219 218 217 214 212 216 213 212 212 210 209 209 210 207 208 225 234 223 224 221 211 224 244 50 281 202 240 241 236 236 261 264 273 262 227 191 197 209 228 238 246 243 210 212 241 262 278 274
272 247 227 218 214 213 212 211 212 210 210 209 214 212 209 210 209 210 206 211 209 221 250 230 236 235 234 235 246 242 250 261 315 308 41 335 309 289 293 255 239 242 222 239 213 218 266 356 265 258 277 281 273 270
292 229 210 203 202 202 204 205 205 206 205 206 207 211 206 206 208 208 206 205 198 220 247 247 241 242 238 235 235 246 248 252 254 260 288 257 264 272 290 307 247 229 239 230 242 243 253 264 270 273 275 264 263 256
56 141 173 183 189 193 195 197 198 199 201 203 203 205 204 201 204 204 205 210 206 199 233 263 243 236 239 237 228 226 239 243 244 248 272 264 260 204 268 295 297 277 199 220 247 269 281 276 282 287 269 254 253 264
63 96 135 156 171 180 185 189 190 193 195 198 198 204 205 200 203 206 212 214 214 195 220 250 258 241 237 225 226 224 229 232 234 245 233 244 235 256 267 271 256 239 223 212 249 252 251 303 358 346 268 251 286 269
73 87 109 133 150 166 179 183 184 190 190 193 194 195 206 198 197 194 166 209 213 205 219 248 273 235 218 226 223 223 223 225 224 229 244 251 250 227 263 269 264 240 240 243 266 294 273 286 291 283 334 259 281 270
66 80 99 112 130 146 163 175 180 180 183 186 191 190 199 205 199 199 190 210 198 203 201 220 241 219 215 210 221 224 220 217 219 223 231 236 223 195 252 257 271 307 240 256 273 259 267 267 294 315 242 227 252 209
66 73 83 91 100 116 150 178 185 174 168 178 183 191 187 174 182 176 179 185 185 172 136 238 248 221 191 221 232 209 194 199 209 228 231 224 226 214 247 254 253 248 255 266 257 213 256 257 275 1 358 19 204 184
68 69 73 84 99 113 119 130 142 154 162 169 156 138 115 111 102 123 146 165 162 153 185 203 228 233 192 225 263 167 168 184 212 214 225 211 210 214 232 249 228 211 186 246 293 291 266 259 256 253 250 275 315 258
68 71 75 78 85 93 104 133 151 141 137 124 112 88 79 119 117 119 129 157 180 225 225 245 220 230 194 161 272 164 173 213 186 200 152 221 246 247 286 276 156 298 284 287 289 281 289 272 254 251 245 250 248 248
66 70 76 78 87 98 108 116 119 119 113 109 74 74 128 125 117 122 137 178 171 221 212 227 230 226 212 226 240 233 178 175 220 148 235 210 242 83 293 48 44 306 294 276 267 277 271 259 258 237 242 251 255 250
61 57 51 51 68 112 126 135 138 120 80 104 122 124 134 157 139 172 180 160 212 228 189 207 203 202 197 213 223 173 203 196 188 151 230 212 124 180 28 352 336 330 357 24 9 360 312 232 231 241 252 247 261 254
55 56 57 53 41 50 101 156 158 123 118 108 96 127 158 167 190 206 186 188 202 193 195 193 179 175 180 207 170 165 197 221 160 219 272 329 78 137 346 349 2 10 14 15 23 38 73 154 221 212 240 236 222 193
47 53 51 47 41 55 120 112 163 177 171 169 167 173 223 178 218 204 214 200 158 189 189 196 114 221 150 154 142 194 187 233 192 154 136 61 45 18 8 18 29 25 36 44 43 38 68 109 111 115 114 115 161 197
348 348 21 32 24 23 191 190 172 178 257 227 204 231 201 200 190 169 199 209 213 230 185 151 218 217 138 148 198 165 184 188 218 121 64 48 131 163 148 99 89 75 65 63 71 83 92 101 100 102 97 93 88 113
303 304 314 1 10 14 156 167 180 199 258 236 225 236 198 217 181 183 176 186 213 194 177 251 220 194 171 154 181 171 177 191 128 153 136 156 189 225 322 99 105 104 98 94 91 93 89 85 92 97 103 111 116 122
282 270 300 329 351 4 140 162 175 209 237 210 213 251 272 350 27 63 144 170 162 152 197 212 212 183 110 134 129 230 242 44 130 148 165 188 192 198 196 196 166 158 138 112 119 105 139 121 109 114 128 126 128 128
271 267 276 296 323 346 181 190 205 198 204 208 208 166 185 189 194 254 217 197 189 224 240 60 124 206 208 172 195 214 225 227 218 228 232 221 202 196 295 216 193 190 166 171 233 188 170 155 149 145 140 136 133 135
289 270 255 254 266 286 211 198 187 228 149 150 167 172 163 211 209 206 204 203 221 219 175 283 262 231 200 205 258 135 204 200 209 228 214 193 197 201 199 202 208 209 200 197 206 181 159 148 150 146 145 139 134 135
273 258 247 223 202 209 213 195 180 180 181 149 161 174 181 185 193 211 211 206 200 195 200 224 222 277 293 40 359 328 278 276 209 197 214 207 204 200 201 220 219 205 192 188 186 172 151 134 136 149 152 149 142 140
159 164 177 175 190 209 142 181 164 128 153 201 163 177 166 161 175 183 187 192 206 231 240 235 251 289 294 290 286 287 262 243 219 230 228 200 201 191 198 214 205 195 188 188 192 189 178 169 161 159 158 154 155 150
115 131 115 149 127 104 104 267 308 272 192 138 180 195 165 174 173 182 152 185 229 309 286 297 283 285 284 284 282 273 263 249 226 216 200 190 179 190 193 193 191 189 190 189 193 199 192 186 173 163 165 165 158 155
92 88 78 67 81 80 132 344 210 182 218 155 204 191 140 153 148 161 222 170 72 26 24 15 354 323 286 271 270 270 252 242 223 198 185 175 171 183 194 196 197 200 199 196 189 189 190 190 183 174 166 158 156 152
90 79 61 50 29 61 355 41 25 60 34 17 75 90 73 22 326 222 126 63 59 26 27 23 16 15 18 9 332 264 233 231 221 208 200 195 198 203 200 205 208 208 207 205 197 191 192 189 187 184 179 171 165 160
75 21 31 23 12 18 38 36 10 44 65 38 41 56 38 350 22 24 70 109 38 21 16 14 14 13 6 5 3 344 359 201 213 217 212 210 211 211 207 205 208 210 212 210 206 202 196 193 191 189 186 184 183 182
64 28 18 7 8 2 13 51 50 27 42 54 57 10 353 341 71 83 85 41 15 359 351 347 352 349 345 341 340 340 306 287 266 247 246 229 225 219 217 208 204 208 206 205 206 201 197 195 196 198 198 193 188 190
43 4 344 1 323 337 55 41 15 12 42 43 25 0 1 68 82 70 70 14 338 325 325 317 314 322 317 316 319 319 267 241 223 244 255 236 215 209 227 212 210 219 201 203 200 203 203 198 199 204 203 200 199 206
24 8 337 332 354 9 40 38 25 16 22 6 330 23 2 18 39 33 4 352 354 349 341 325 319 321 319 320 302 309 226 224 239 238 206 211 201 201 211 210 202 198 202 193 190 197 202 200 197 195 196 198 210 208
359 347 343 2 356 28 28 21 23 7 356 329 291 222 58 65 39 31 20 16 11 6 5 357 338 337 335 339 306 292 224 206 191 168 159 147 144 155 174 181 179 179 187 193 188 195 201 189 189 186 189 196 190 184
325 343 331 343 339 333 75 360 329 314 315 279 270 306 90 87 53 39 30 24 17 5 357 353 348 345 339 339 329 322 238 200 185 190 197 201 201 192 186 190 199 198 194 188 181 174 177 179 179 182 187 182 182 180
302 325 308 332 295 318 322 327 325 317 297 262 251 215 129 140 75 29 28 26 23 18 17 16 17 11 2 358 352 360 1 196 199 194 199 185 195 202 207 215 218 208 205 201 192 180 172 176 179 176 174 174 171 173
315 312 328 296 303 307 328 335 309 296 301 322 159 101 123 112 72 22 14 14 17 17 13 7 3 5 25 41 33 53 136 142 138 136 139 204 241 224 214 216 213 203 199 199 194 181 174 175 176 170 165 164 165 166
298 305 306 318 307 325 333 332 297 303 292 315 55 48 41 61 74 12 5 15 14 6 2 2 0 7 63 69 51 53 55 45 13 331 287 244 187 182 177 168 160 157 171 182 183 181 181 180 181 177 168 164 162 162